Location: Sungai Dangang
(2.7500°N, 113.8333°E)
Time: 04:25:33
(UTC+00:00)

NOSS 0 Rocket - Pass Details

Date: 16 May 2021
Orbit: 934 x 956 km, 70.0° (Epoch: 16 June)

Event Time Altitude Azimuth Distance (km) Brightness Sun altitude
Exits shadow 20:39:08 20° 186° (S) 1,993 5.4 -22.9°
Maximum altitude 20:43:26 71° 106° (ESE) 984 4.1 -21.9°
Drops below altitude 10° 20:49:31 10° 23° (NNE) 2,640 6.9 -20.5°
Sets 20:52:03 0° 21° (NNE) 3,585 7.6 -20.0°
